Time,TemperatureF,DewpointF,PressureIn,WindDirection,WindDirectionDegrees,WindSpeedMPH,WindSpeedGustMPH,Humidity,HourlyPrecipIn,Conditions,Clouds,dailyrainin,SoftwareType,DateUTC
2013-05-20 00:03:00,70.3,58.9,29.67,SE,146,12.0,21.0,67,0.00,RA,RA,0.00,WeatherDisplay:10.37,2013-05-20 05:03:00,
2013-05-20 00:13:00,70.2,59.1,29.67,SSE,166,8.0,20.0,68,0.00,CLR,CLR,0.00,WeatherDisplay:10.37,2013-05-20 05:13:00,
2013-05-20 00:23:00,70.1,59.1,29.68,SSW,200,3.0,12.0,68,0.00,CLR,CLR,0.00,WeatherDisplay:10.37,2013-05-20 05:23:00,
2013-05-20 00:33:00,70.2,59.1,29.68,South,179,3.0,20.0,68,0.00,CLR,CLR,0.00,WeatherDisplay:10.37,2013-05-20 05:33:00,
2013-05-20 00:43:00,70.2,59.1,29.68,SSE,151,5.0,16.0,68,0.00,CLR,CLR,0.00,WeatherDisplay:10.37,2013-05-20 05:43:00,
2013-05-20 00:53:00,70.2,59.9,29.69,South,170,6.0,18.0,70,0.00,CLR,CLR,0.00,WeatherDisplay:10.37,2013-05-20 05:53:00,
2013-05-20 01:03:00,70.2,60.7,29.71,SSE,157,12.0,20.0,72,0.00,CLR,CLR,0.00,WeatherDisplay:10.37,2013-05-20 06:03:00,
2013-05-20 01:13:00,67.9,62.9,29.71,SE,146,2.0,20.0,84,0.07,RA,RA,0.07,WeatherDisplay:10.37,2013-05-20 06:13:00,
2013-05-20 01:23:00,66.6,63.9,29.70,South,185,2.0,13.0,91,0.00,BKN,BKN,0.07,WeatherDisplay:10.37,2013-05-20 06:23:00,
2013-05-20 01:33:00,67.5,65.0,29.77,NW,304,22.0,44.0,92,0.01,RA,RA,0.08,WeatherDisplay:10.37,2013-05-20 06:33:00,
2013-05-20 01:43:00,65.6,64.1,29.78,West,267,13.0,38.0,95,0.06,RA,RA,0.18,WeatherDisplay:10.37,2013-05-20 06:43:00,
2013-05-20 01:53:00,63.6,63.4,29.79,SW,218,6.0,17.0,99,0.11,RA,RA,0.32,WeatherDisplay:10.37,2013-05-20 06:53:00,
2013-05-20 02:03:00,63.0,62.7,29.75,West,265,0.0,5.0,99,0.02,RA,RA,0.40,WeatherDisplay:10.37,2013-05-20 07:03:00,
2013-05-20 02:13:00,62.6,62.3,29.74,NNW,332,2.0,6.0,99,0.01,RA,RA,0.43,WeatherDisplay:10.37,2013-05-20 07:13:00,
2013-05-20 02:23:00,62.4,62.1,29.72,East,82,2.0,6.0,99,0.00,OVC,OVC,0.43,WeatherDisplay:10.37,2013-05-20 07:23:00,
2013-05-20 02:33:00,62.5,62.2,29.71,East,88,3.0,9.0,99,0.00,-RA,-RA,0.43,WeatherDisplay:10.37,2013-05-20 07:33:00,
2013-05-20 02:43:00,62.4,62.1,29.70,ESE,114,2.0,8.0,99,0.00,-RA,-RA,0.43,WeatherDisplay:10.37,2013-05-20 07:43:00,
2013-05-20 02:53:00,62.2,62.0,29.70,ESE,113,0.0,7.0,99,0.00,-RA,-RA,0.43,WeatherDisplay:10.37,2013-05-20 07:53:00,
2013-05-20 03:03:00,62.2,62.0,29.70,SE,133,2.0,5.0,99,0.00,FEW,FEW,0.43,WeatherDisplay:10.37,2013-05-20 08:03:00,
2013-05-20 03:13:00,62.4,62.1,29.69,ESE,116,3.0,6.0,99,0.00,FEW,FEW,0.43,WeatherDisplay:10.37,2013-05-20 08:13:00,
2013-05-20 03:23:00,62.4,62.1,29.69,SE,124,2.0,9.0,99,0.00,FEW,FEW,0.43,WeatherDisplay:10.37,2013-05-20 08:23:00,
2013-05-20 03:33:00,62.4,62.1,29.70,ESE,110,1.0,7.0,99,0.00,FEW,FEW,0.43,WeatherDisplay:10.37,2013-05-20 08:33:00,
2013-05-20 03:43:00,62.2,62.0,29.70,ESE,110,1.0,6.0,99,0.00,FEW,FEW,0.43,WeatherDisplay:10.37,2013-05-20 08:43:00,
2013-05-20 03:53:00,61.9,61.6,29.69,East,93,2.0,6.0,99,0.00,FEW,FEW,0.43,WeatherDisplay:10.37,2013-05-20 08:53:00,
2013-05-20 04:03:00,61.9,61.6,29.68,ESE,103,0.0,6.0,99,0.00,FEW,FEW,0.43,WeatherDisplay:10.37,2013-05-20 09:03:00,
2013-05-20 04:13:00,61.7,61.4,29.69,ESE,121,0.0,7.0,99,0.00,FEW,FEW,0.43,WeatherDisplay:10.37,2013-05-20 09:13:00,
2013-05-20 04:23:00,61.7,61.4,29.69,SSE,162,2.0,5.0,99,0.00,FEW,FEW,0.43,WeatherDisplay:10.37,2013-05-20 09:23:00,
2013-05-20 04:33:00,61.7,61.4,29.69,SSE,153,0.0,7.0,99,0.00,FEW,FEW,0.43,WeatherDisplay:10.37,2013-05-20 09:33:00,
2013-05-20 04:43:00,61.5,61.2,29.69,SE,145,1.0,5.0,99,0.00,FEW,FEW,0.43,WeatherDisplay:10.37,2013-05-20 09:43:00,
2013-05-20 04:53:00,61.5,61.2,29.68,SSE,149,5.0,9.0,99,0.00,FEW,FEW,0.43,WeatherDisplay:10.37,2013-05-20 09:53:00,
2013-05-20 05:03:00,61.5,61.2,29.67,SE,135,3.0,7.0,99,0.00,CLR,CLR,0.43,WeatherDisplay:10.37,2013-05-20 10:03:00,
2013-05-20 05:13:00,61.6,61.3,29.65,ESE,109,7.0,15.0,99,0.00,CLR,CLR,0.43,WeatherDisplay:10.37,2013-05-20 10:13:00,
2013-05-20 05:23:00,61.7,61.4,29.64,SE,132,5.0,18.0,99,0.00,CLR,CLR,0.43,WeatherDisplay:10.37,2013-05-20 10:23:00,
2013-05-20 05:33:00,61.5,61.2,29.63,SSE,153,3.0,13.0,99,0.00,CLR,CLR,0.43,WeatherDisplay:10.37,2013-05-20 10:33:00,
2013-05-20 05:43:00,61.3,61.1,29.65,SE,131,0.0,6.0,99,0.00,CLR,CLR,0.43,WeatherDisplay:10.37,2013-05-20 10:43:00,
2013-05-20 05:53:00,61.3,61.1,29.66,SSW,202,0.0,3.0,99,0.00,CLR,CLR,0.43,WeatherDisplay:10.37,2013-05-20 10:53:00,
2013-05-20 06:03:00,61.3,61.1,29.67,SSW,201,0.0,3.0,99,0.00,SCT,SCT,0.43,WeatherDisplay:10.37,2013-05-20 11:03:00,
2013-05-20 06:13:00,61.5,61.2,29.68,SSW,198,1.0,7.0,99,0.00,SCT,SCT,0.43,WeatherDisplay:10.37,2013-05-20 11:13:00,
2013-05-20 06:23:00,62.1,61.8,29.68,South,169,1.0,6.0,99,0.00,SCT,SCT,0.43,WeatherDisplay:10.37,2013-05-20 11:23:00,
2013-05-20 06:33:00,62.8,62.5,29.70,South,185,3.0,12.0,99,0.00,SCT,SCT,0.43,WeatherDisplay:10.37,2013-05-20 11:33:00,
2013-05-20 06:43:00,62.7,62.4,29.71,South,190,5.0,14.0,99,0.00,SCT,SCT,0.43,WeatherDisplay:10.37,2013-05-20 11:43:00,
2013-05-20 06:53:00,63.8,63.5,29.72,SSE,166,5.0,16.0,99,0.00,RA,RA,0.44,WeatherDisplay:10.37,2013-05-20 11:53:00,
2013-05-20 07:03:00,64.4,63.5,29.71,South,170,7.0,10.0,97,0.00,BKN,BKN,0.44,WeatherDisplay:10.37,2013-05-20 12:03:00,
2013-05-20 07:13:00,65.5,63.4,29.71,South,172,5.0,13.0,93,0.00,BKN,BKN,0.44,WeatherDisplay:10.37,2013-05-20 12:13:00,
2013-05-20 07:23:00,65.7,62.6,29.70,SSE,160,8.0,16.0,90,0.00,BKN,BKN,0.44,WeatherDisplay:10.37,2013-05-20 12:23:00,
2013-05-20 07:33:00,66.2,63.2,29.70,South,182,6.0,9.0,90,0.00,BKN,BKN,0.44,WeatherDisplay:10.37,2013-05-20 12:33:00,
2013-05-20 07:43:00,67.0,62.7,29.69,SSE,153,6.0,15.0,86,0.00,BKN,BKN,0.44,WeatherDisplay:10.37,2013-05-20 12:43:00,
2013-05-20 07:53:00,67.5,62.5,29.68,South,175,6.0,15.0,84,0.00,BKN,BKN,0.44,WeatherDisplay:10.37,2013-05-20 12:53:00,
2013-05-20 08:03:00,67.8,62.5,29.69,South,189,5.0,9.0,83,0.00,SCT,SCT,0.44,WeatherDisplay:10.37,2013-05-20 13:03:00,
2013-05-20 08:13:00,68.5,62.1,29.68,SSE,163,6.0,15.0,80,0.00,SCT,SCT,0.44,WeatherDisplay:10.37,2013-05-20 13:13:00,
2013-05-20 08:23:00,69.5,62.7,29.69,SSW,203,1.0,13.0,79,0.00,SCT,SCT,0.44,WeatherDisplay:10.37,2013-05-20 13:23:00,
2013-05-20 08:33:00,71.2,62.9,29.69,South,177,1.0,10.0,75,0.00,SCT,SCT,0.44,WeatherDisplay:10.37,2013-05-20 13:33:00,
2013-05-20 10:03:00,75.0,60.7,29.70,West,261,10.0,26.0,61,0.00,FEW,FEW,0.44,WeatherDisplay:10.37,2013-05-20 15:03:00,
2013-05-20 10:13:00,74.3,60.4,29.70,SSW,211,10.0,26.0,62,0.00,FEW,FEW,0.44,WeatherDisplay:10.37,2013-05-20 15:13:00,
2013-05-20 10:23:00,75.4,61.0,29.71,WSW,237,8.0,22.0,61,0.00,FEW,FEW,0.44,WeatherDisplay:10.37,2013-05-20 15:23:00,
2013-05-20 10:33:00,75.4,61.5,29.71,WSW,251,9.0,21.0,62,0.00,FEW,FEW,0.44,WeatherDisplay:10.37,2013-05-20 15:33:00,
2013-05-20 10:43:00,76.1,60.2,29.71,West,265,7.0,17.0,58,0.00,FEW,FEW,0.44,WeatherDisplay:10.37,2013-05-20 15:43:00,
2013-05-20 10:53:00,76.6,60.8,29.71,SW,217,8.0,22.0,58,0.00,FEW,FEW,0.44,WeatherDisplay:10.37,2013-05-20 15:53:00,
2013-05-20 11:03:00,77.4,62.4,29.71,SSW,209,2.0,12.0,60,0.00,FEW,FEW,0.44,WeatherDisplay:10.37,2013-05-20 16:03:00,
2013-05-20 11:13:00,77.2,59.8,29.70,WSW,246,7.0,14.0,55,0.00,FEW,FEW,0.44,WeatherDisplay:10.37,2013-05-20 16:13:00,
2013-05-20 11:23:00,77.2,59.8,29.69,SSW,211,6.0,18.0,55,0.00,FEW,FEW,0.44,WeatherDisplay:10.37,2013-05-20 16:23:00,
2013-05-20 11:33:00,78.3,59.7,29.69,SW,224,5.0,14.0,53,0.00,FEW,FEW,0.44,WeatherDisplay:10.37,2013-05-20 16:33:00,
2013-05-20 14:23:00,82.8,62.2,29.70,SSW,206,3.0,16.0,50,0.00,FEW,FEW,0.44,WeatherDisplay:10.37,2013-05-20 19:23:00,
2013-05-20 14:33:00,82.2,60.6,29.69,SSW,212,7.0,18.0,48,0.00,FEW,FEW,0.44,WeatherDisplay:10.37,2013-05-20 19:33:00,
2013-05-20 14:43:00,82.0,59.2,29.69,SW,226,10.0,21.0,46,0.00,FEW,FEW,0.44,WeatherDisplay:10.37,2013-05-20 19:43:00,
2013-05-20 14:53:00,81.9,60.2,29.70,WSW,242,9.0,23.0,48,0.00,FEW,FEW,0.44,WeatherDisplay:10.37,2013-05-20 19:53:00,
2013-05-20 15:03:00,82.6,60.9,29.69,South,188,5.0,16.0,48,0.00,FEW,FEW,0.44,WeatherDisplay:10.37,2013-05-20 20:03:00,
2013-05-20 15:13:00,83.1,60.2,29.70,SW,214,3.0,21.0,46,0.00,FEW,FEW,0.44,WeatherDisplay:10.37,2013-05-20 20:13:00,
2013-05-20 15:23:00,82.8,61.1,29.69,WSW,249,9.0,21.0,48,0.00,FEW,FEW,0.44,WeatherDisplay:10.37,2013-05-20 20:23:00,
2013-05-20 15:33:00,82.9,59.4,29.69,WSW,238,8.0,22.0,45,0.00,FEW,FEW,0.44,WeatherDisplay:10.37,2013-05-20 20:33:00,
2013-05-20 15:43:00,84.0,61.6,29.68,SW,233,6.0,21.0,47,0.00,FEW,FEW,0.44,WeatherDisplay:10.37,2013-05-20 20:43:00,
2013-05-20 15:53:00,84.6,61.6,29.68,SW,217,8.0,23.0,46,0.00,FEW,FEW,0.44,WeatherDisplay:10.37,2013-05-20 20:53:00,
2013-05-20 16:03:00,84.2,60.6,29.68,SW,227,13.0,24.0,45,0.00,FEW,FEW,0.44,WeatherDisplay:10.37,2013-05-20 21:03:00,
2013-05-20 16:13:00,84.0,60.4,29.68,SW,219,10.0,24.0,45,0.00,FEW,FEW,0.44,WeatherDisplay:10.37,2013-05-20 21:13:00,
2013-05-20 16:23:00,83.9,59.0,29.68,SW,219,10.0,28.0,43,0.00,FEW,FEW,0.44,WeatherDisplay:10.37,2013-05-20 21:23:00,
2013-05-20 16:33:00,84.8,59.8,29.67,SW,219,7.0,20.0,43,0.00,FEW,FEW,0.44,WeatherDisplay:10.37,2013-05-20 21:33:00,
2013-05-20 16:43:00,83.8,59.5,29.67,SW,233,10.0,28.0,44,0.00,FEW,FEW,0.44,WeatherDisplay:10.37,2013-05-20 21:43:00,
2013-05-20 16:53:00,84.2,59.3,29.67,SW,217,8.0,17.0,43,0.00,FEW,FEW,0.44,WeatherDisplay:10.37,2013-05-20 21:53:00,
2013-05-20 17:03:00,84.4,60.1,29.66,SSW,212,7.0,23.0,44,0.00,FEW,FEW,0.44,WeatherDisplay:10.37,2013-05-20 22:03:00,
2013-05-20 17:13:00,83.8,60.2,29.66,SW,233,10.0,30.0,45,0.00,FEW,FEW,0.44,WeatherDisplay:10.37,2013-05-20 22:13:00,
2013-05-20 17:23:00,83.9,59.0,29.66,SW,225,8.0,23.0,43,0.00,FEW,FEW,0.44,WeatherDisplay:10.37,2013-05-20 22:23:00,
2013-05-20 17:33:00,84.5,59.6,29.66,SSW,206,5.0,18.0,43,0.00,FEW,FEW,0.44,WeatherDisplay:10.37,2013-05-20 22:33:00,
2013-05-20 17:43:00,84.0,59.8,29.66,SW,222,10.0,22.0,44,0.00,FEW,FEW,0.44,WeatherDisplay:10.37,2013-05-20 22:43:00,
2013-05-20 17:53:00,83.8,60.2,29.66,WSW,252,5.0,21.0,45,0.00,FEW,FEW,0.44,WeatherDisplay:10.37,2013-05-20 22:53:00,
2013-05-20 18:03:00,83.7,59.4,29.66,SSW,206,8.0,17.0,44,0.00,CLR,CLR,0.44,WeatherDisplay:10.37,2013-05-20 23:03:00,
2013-05-20 18:13:00,83.4,58.6,29.66,SW,235,3.0,17.0,43,0.00,CLR,CLR,0.44,WeatherDisplay:10.37,2013-05-20 23:13:00,
2013-05-20 18:23:00,83.3,58.5,29.65,South,178,5.0,22.0,43,0.00,CLR,CLR,0.44,WeatherDisplay:10.37,2013-05-20 23:23:00,
2013-05-20 18:33:00,84.0,60.4,29.65,SW,214,7.0,14.0,45,0.00,CLR,CLR,0.44,WeatherDisplay:10.37,2013-05-20 23:33:00,
2013-05-20 18:43:00,82.4,61.3,29.65,WSW,247,2.0,13.0,49,0.00,CLR,CLR,0.44,WeatherDisplay:10.37,2013-05-20 23:43:00,
2013-05-20 18:53:00,81.4,60.4,29.66,SSW,212,5.0,9.0,49,0.00,CLR,CLR,0.44,WeatherDisplay:10.37,2013-05-20 23:53:00,
2013-05-20 19:03:00,80.6,59.7,29.66,SSW,207,8.0,24.0,49,0.00,CLR,CLR,0.44,WeatherDisplay:10.37,2013-05-21 00:03:00,
2013-05-20 19:13:00,80.1,58.6,29.66,SSW,210,5.0,15.0,48,0.00,CLR,CLR,0.44,WeatherDisplay:10.37,2013-05-21 00:13:00,
2013-05-20 19:23:00,79.5,59.2,29.65,SSW,193,3.0,24.0,50,0.00,CLR,CLR,0.44,WeatherDisplay:10.37,2013-05-21 00:23:00,
2013-05-20 19:33:00,79.0,59.3,29.66,SSW,208,1.0,9.0,51,0.00,CLR,CLR,0.44,WeatherDisplay:10.37,2013-05-21 00:33:00,
2013-05-20 19:43:00,78.6,59.5,29.67,SSW,196,5.0,12.0,52,0.00,CLR,CLR,0.44,WeatherDisplay:10.37,2013-05-21 00:43:00,
2013-05-20 19:53:00,78.0,59.5,29.67,SW,221,3.0,12.0,53,0.00,CLR,CLR,0.44,WeatherDisplay:10.37,2013-05-21 00:53:00,
2013-05-20 20:03:00,77.4,59.4,29.67,SW,219,1.0,9.0,54,0.00,CLR,CLR,0.44,WeatherDisplay:10.37,2013-05-21 01:03:00,
2013-05-20 20:13:00,76.6,59.3,29.66,SSW,210,3.0,8.0,55,0.00,CLR,CLR,0.44,WeatherDisplay:10.37,2013-05-21 01:13:00,
2013-05-20 20:23:00,76.2,59.4,29.65,SSW,195,1.0,10.0,56,0.00,CLR,CLR,0.44,WeatherDisplay:10.37,2013-05-21 01:23:00,
2013-05-20 20:33:00,75.6,59.3,29.65,South,176,1.0,8.0,57,0.00,CLR,CLR,0.44,WeatherDisplay:10.37,2013-05-21 01:33:00,
2013-05-20 20:43:00,75.2,59.4,29.65,South,181,1.0,12.0,58,0.00,CLR,CLR,0.44,WeatherDisplay:10.37,2013-05-21 01:43:00,
2013-05-20 20:53:00,74.9,59.1,29.65,South,191,1.0,9.0,58,0.00,CLR,CLR,0.44,WeatherDisplay:10.37,2013-05-21 01:53:00,
2013-05-20 21:03:00,74.5,59.2,29.65,South,173,2.0,8.0,59,0.00,CLR,CLR,0.44,WeatherDisplay:10.37,2013-05-21 02:03:00,
2013-05-20 21:13:00,74.4,59.6,29.66,South,187,3.0,14.0,60,0.00,CLR,CLR,0.44,WeatherDisplay:10.37,2013-05-21 02:13:00,
2013-05-20 21:23:00,74.1,59.8,29.66,SSE,164,3.0,7.0,61,0.00,CLR,CLR,0.44,WeatherDisplay:10.37,2013-05-21 02:23:00,
2013-05-20 21:33:00,74.1,59.8,29.67,SE,142,0.0,3.0,61,0.00,CLR,CLR,0.44,WeatherDisplay:10.37,2013-05-21 02:33:00,
2013-05-20 21:43:00,74.1,60.3,29.66,SE,133,5.0,9.0,62,0.00,CLR,CLR,0.44,WeatherDisplay:10.37,2013-05-21 02:43:00,
2013-05-20 21:53:00,74.2,60.4,29.66,ESE,108,2.0,7.0,62,0.00,CLR,CLR,0.44,WeatherDisplay:10.37,2013-05-21 02:53:00,
2013-05-20 22:03:00,73.8,60.4,29.65,ESE,115,2.0,5.0,63,0.00,OVC,OVC,0.44,WeatherDisplay:10.37,2013-05-21 03:03:00,
2013-05-20 22:13:00,73.4,60.5,29.65,ESE,103,1.0,6.0,64,0.00,OVC,OVC,0.44,WeatherDisplay:10.37,2013-05-21 03:13:00,
2013-05-20 22:23:00,72.9,60.4,29.63,East,95,1.0,5.0,65,0.00,OVC,OVC,0.44,WeatherDisplay:10.37,2013-05-21 03:23:00,
2013-05-20 22:33:00,72.5,60.5,29.64,East,97,3.0,8.0,66,0.00,OVC,OVC,0.44,WeatherDisplay:10.37,2013-05-21 03:33:00,
2013-05-20 22:43:00,72.1,60.6,29.64,ESE,102,1.0,5.0,67,0.00,OVC,OVC,0.44,WeatherDisplay:10.37,2013-05-21 03:43:00,
2013-05-20 22:53:00,72.0,60.4,29.64,NE,40,0.0,3.0,67,0.00,OVC,OVC,0.44,WeatherDisplay:10.37,2013-05-21 03:53:00,
2013-05-20 23:03:00,72.0,60.4,29.64,ESE,108,2.0,5.0,67,0.00,CLR,CLR,0.44,WeatherDisplay:10.37,2013-05-21 04:03:00,
2013-05-20 23:13:00,72.0,60.4,29.63,SE,142,2.0,8.0,67,0.00,CLR,CLR,0.44,WeatherDisplay:10.37,2013-05-21 04:13:00,
2013-05-20 23:23:00,72.1,60.2,29.62,ESE,112,1.0,5.0,66,0.00,CLR,CLR,0.44,WeatherDisplay:10.37,2013-05-21 04:23:00,
2013-05-20 23:33:00,72.7,59.4,29.61,SSE,168,7.0,12.0,63,0.00,CLR,CLR,0.44,WeatherDisplay:10.37,2013-05-21 04:33:00,
2013-05-20 23:43:00,73.2,59.0,29.60,South,182,5.0,16.0,61,0.00,CLR,CLR,0.44,WeatherDisplay:10.37,2013-05-21 04:43:00,
2013-05-20 23:53:00,72.9,59.1,29.59,SE,125,3.0,15.0,62,0.00,CLR,CLR,0.44,WeatherDisplay:10.37,2013-05-21 04:53:00,